Total_Precipitation_Accumulation
1.00 1.24 1.79 2.56 3.39 2.82 2.11 1.80 1.42 1.21 1.01 0.88 0.78 0.78 0.94 1.17 1.67 2.38 2.60 2.31 1.67 1.56 1.91 2.53 2.69 2.51 2.24 1.93 1.91 2.02 2.05 2.22 2.13 1.89 1.65 1.42 1.29 1.18 1.18 1.16 1.14 1.08 0.96 0.98 1.03 0.99 0.96 0.95 0.88
0.97 1.75 2.35 3.32 3.37 2.36 2.04 1.85 1.55 1.08 0.82 0.62 0.54 0.69 0.84 0.80 0.97 1.75 2.57 2.46 1.63 1.42 1.67 2.14 2.49 2.40 2.17 1.97 1.96 2.06 2.02 1.95 1.87 1.64 1.38 1.29 1.26 1.19 1.13 1.19 1.20 1.05 0.93 0.91 0.95 1.03 0.98 0.91 0.81
1.09 1.95 2.61 3.06 2.44 2.02 1.98 1.76 1.36 0.92 0.69 0.56 0.48 0.53 0.75 1.03 1.27 1.99 2.35 1.75 1.40 1.21 1.55 2.11 2.48 2.30 2.04 1.87 1.90 1.92 1.97 1.87 1.72 1.63 1.46 1.33 1.31 1.26 1.24 1.25 1.22 1.04 0.89 0.81 0.91 0.97 0.92 0.86 0.75
1.46 2.27 2.58 2.37 1.91 1.49 1.41 1.43 1.05 0.83 0.59 0.43 0.43 0.59 0.80 1.24 1.50 1.88 1.93 1.44 1.25 1.20 1.48 1.78 2.02 1.91 1.74 1.72 1.73 1.63 1.48 1.48 1.63 1.68 1.53 1.41 1.29 1.21 1.19 1.20 1.08 0.89 0.81 0.80 0.86 0.89 0.86 0.81 0.69
1.80 2.48 2.53 2.03 1.67 1.41 1.21 1.05 0.84 0.75 0.66 0.52 0.45 0.81 1.25 1.52 1.65 1.65 1.61 1.34 1.25 1.45 1.72 1.68 1.81 1.73 1.66 1.59 1.54 1.42 1.40 1.49 1.68 1.64 1.52 1.42 1.26 1.13 1.11 1.04 0.88 0.72 0.70 0.76 0.92 0.94 0.78 0.73 0.68
2.26 2.46 2.77 2.17 1.72 1.44 1.31 1.01 0.77 0.66 0.59 0.49 0.50 0.83 1.40 1.73 1.74 1.68 1.60 1.45 1.35 1.39 1.55 1.59 1.74 1.67 1.51 1.38 1.39 1.27 1.34 1.57 1.71 1.64 1.58 1.60 1.34 1.12 0.99 0.92 0.82 0.70 0.64 0.71 0.85 0.90 0.77 0.70 0.73
2.42 2.54 2.34 1.83 1.69 1.78 1.39 0.87 0.77 0.72 0.69 0.55 0.45 0.80 1.41 1.81 1.57 1.37 1.37 1.25 1.23 1.24 1.29 1.24 1.30 1.38 1.32 1.30 1.38 1.37 1.47 1.58 1.61 1.52 1.47 1.46 1.15 0.92 0.83 0.81 0.80 0.75 0.75 0.80 0.83 0.89 0.83 0.79 0.80
1.66 1.83 1.82 1.72 1.76 1.73 1.18 0.74 0.64 0.60 0.65 0.45 0.40 0.72 1.29 1.48 1.25 1.26 1.23 1.19 1.20 1.17 1.13 0.99 1.02 1.21 1.33 1.31 1.38 1.48 1.53 1.50 1.58 1.44 1.34 1.21 0.94 0.78 0.77 0.71 0.71 0.70 0.74 0.81 0.86 0.89 0.84 0.80 0.79
1.53 1.83 2.07 1.95 1.69 1.47 1.04 0.82 0.60 0.44 0.47 0.41 0.36 0.44 0.65 0.85 0.96 1.12 1.19 1.15 1.27 1.15 1.04 0.97 0.86 0.92 1.11 1.24 1.25 1.48 1.55 1.50 1.40 1.34 1.31 1.09 0.75 0.65 0.69 0.66 0.81 0.79 0.84 0.90 0.92 0.89 0.81 0.75 0.69
1.51 1.91 1.96 1.44 1.10 1.04 0.96 0.83 0.67 0.62 0.65 0.55 0.47 0.46 0.52 0.68 0.85 0.95 1.03 1.06 1.12 1.10 0.93 0.87 0.78 0.73 0.73 0.81 1.10 1.48 1.33 1.27 1.05 1.03 1.02 0.96 0.86 0.81 0.66 0.72 0.93 0.95 0.95 0.94 0.92 0.88 0.73 0.59 0.52
1.24 1.36 1.25 1.16 0.85 0.72 0.85 0.81 0.63 0.67 0.76 0.57 0.53 0.51 0.53 0.63 0.68 0.75 0.85 0.88 0.89 0.96 0.90 0.82 0.73 0.64 0.63 0.75 0.87 1.08 1.15 1.17 1.03 0.88 0.87 0.94 0.89 0.79 0.67 0.62 0.70 0.80 0.87 0.79 0.76 0.74 0.58 0.53 0.57
1.09 1.01 0.88 0.85 0.67 0.68 0.87 0.75 0.64 0.72 0.69 0.45 0.37 0.40 0.51 0.59 0.57 0.58 0.70 0.84 0.89 0.91 0.91 0.85 0.74 0.68 0.65 0.64 0.62 0.70 0.76 0.81 0.82 0.76 0.75 0.86 0.81 0.77 0.75 0.74 0.69 0.70 0.75 0.82 0.78 0.74 0.64 0.60 0.62
1.01 0.95 0.77 0.63 0.67 0.69 0.76 0.80 0.69 0.69 0.57 0.46 0.39 0.48 0.55 0.54 0.52 0.54 0.61 0.74 0.81 0.85 0.91 0.87 0.76 0.68 0.63 0.59 0.56 0.54 0.64 0.69 0.71 0.75 0.73 0.74 0.78 0.77 0.73 0.70 0.75 0.76 0.75 0.79 0.79 0.70 0.64 0.63 0.61
0.95 0.88 0.81 0.68 0.68 0.71 0.77 0.81 0.76 0.81 0.63 0.52 0.44 0.49 0.51 0.53 0.53 0.56 0.59 0.69 0.73 0.74 0.89 0.92 0.82 0.77 0.70 0.63 0.59 0.58 0.65 0.72 0.71 0.64 0.60 0.65 0.67 0.69 0.78 0.81 0.82 0.83 0.82 0.90 0.90 0.70 0.71 0.75 0.71
0.83 0.89 0.88 0.80 0.79 0.77 0.80 1.00 0.92 0.84 0.72 0.69 0.56 0.48 0.49 0.48 0.48 0.54 0.54 0.61 0.69 0.76 0.89 0.89 0.86 0.94 0.85 0.75 0.72 0.65 0.69 0.74 0.76 0.76 0.71 0.72 0.72 0.74 0.82 0.90 0.91 0.90 0.88 0.92 1.15 1.01 0.79 0.76 0.75
0.96 1.06 1.22 0.88 0.78 0.82 0.96 1.17 0.87 0.85 0.83 0.90 0.72 0.58 0.53 0.50 0.47 0.47 0.48 0.58 0.63 0.79 0.87 0.96 0.88 0.97 0.95 0.89 0.88 0.82 0.82 0.87 0.87 0.87 0.89 0.83 0.83 0.86 0.94 0.99 0.89 0.95 1.03 1.07 1.23 1.29 1.00 0.81 0.81
1.13 1.21 1.19 0.93 0.71 0.74 0.85 0.96 0.79 0.74 0.72 0.75 0.71 0.63 0.61 0.49 0.44 0.42 0.43 0.50 0.57 0.73 0.82 0.97 0.99 0.98 1.03 1.05 1.08 1.02 0.98 0.99 0.97 0.95 0.91 0.92 0.95 1.02 1.09 1.10 1.04 1.03 1.05 1.15 1.15 1.37 1.35 1.15 1.06
1.08 0.96 0.91 0.82 0.71 0.72 0.73 0.65 0.63 0.62 0.64 0.61 0.62 0.58 0.53 0.46 0.44 0.42 0.39 0.40 0.47 0.64 0.77 0.89 1.05 1.17 1.24 1.27 1.32 1.31 1.21 1.13 1.15 1.16 1.13 1.14 1.21 1.17 1.24 1.26 1.26 1.34 1.32 1.31 1.23 1.43 1.55 1.37 1.35
0.74 0.73 0.75 0.64 0.57 0.60 0.55 0.49 0.53 0.56 0.60 0.53 0.54 0.53 0.44 0.40 0.42 0.40 0.35 0.37 0.41 0.52 0.63 0.79 1.16 1.60 1.78 1.69 1.67 1.71 1.76 1.73 1.63 1.59 1.56 1.59 1.59 1.59 1.64 1.61 1.61 1.58 1.53 1.59 1.57 1.83 2.18 1.73 1.50
0.69 0.74 0.76 0.66 0.48 0.48 0.48 0.42 0.43 0.49 0.50 0.46 0.44 0.46 0.41 0.37 0.33 0.31 0.28 0.32 0.36 0.53 0.69 0.80 1.10 1.55 1.75 1.86 1.98 2.19 2.36 2.23 2.08 2.06 2.00 2.07 2.08 2.23 2.20 2.18 2.18 2.10 2.10 2.08 2.00 2.11 2.41 2.06 1.81
0.68 0.71 0.70 0.64 0.49 0.44 0.43 0.45 0.40 0.45 0.40 0.38 0.38 0.39 0.35 0.28 0.27 0.28 0.27 0.31 0.35 0.48 0.62 0.74 0.95 1.25 1.60 1.86 2.12 2.40 2.62 2.60 2.46 2.29 2.26 2.32 2.37 2.52 2.65 2.64 2.69 2.52 2.39 2.44 2.35 2.31 2.49 2.55 2.25
0.70 0.48 0.44 0.44 0.58 0.59 0.45 0.68 0.48 0.46 0.43 0.38 0.38 0.37 0.36 0.30 0.29 0.32 0.30 0.33 0.37 0.44 0.54 0.71 0.91 1.15 1.39 1.62 2.02 2.45 2.74 2.83 2.73 2.63 2.58 2.53 2.53 2.58 2.79 2.83 2.94 2.78 2.66 2.63 2.55 2.37 2.51 2.83 2.74
0.53 0.41 0.41 0.43 0.53 0.50 0.35 0.49 0.48 0.39 0.42 0.37 0.34 0.33 0.33 0.31 0.32 0.36 0.36 0.40 0.46 0.49 0.55 0.69 0.84 1.07 1.32 1.54 1.88 2.27 2.53 2.74 2.87 2.71 2.58 2.59 2.61 2.63 2.75 2.89 3.00 2.86 2.73 2.68 2.78 2.68 2.63 2.55 2.55
0.41 0.44 0.44 0.46 0.52 0.58 0.28 0.41 0.53 0.37 0.34 0.34 0.31 0.28 0.29 0.32 0.38 0.42 0.52 0.57 0.60 0.55 0.60 0.70 0.81 0.98 1.14 1.26 1.47 1.69 2.04 2.26 2.60 2.60 2.53 2.64 2.62 2.53 2.45 2.61 2.85 2.79 2.77 2.78 2.87 2.92 2.85 2.83 2.83
0.40 0.63 0.83 0.84 0.80 0.54 0.22 0.37 0.52 0.38 0.30 0.31 0.32 0.29 0.30 0.34 0.41 0.50 0.64 0.71 0.74 0.64 0.61 0.66 0.82 0.90 0.98 1.06 1.15 1.28 1.53 1.68 2.04 2.36 2.34 2.26 2.30 2.35 2.41 2.44 2.44 2.45 2.53 2.67 2.90 2.89 2.78 2.76 2.87
0.34 0.55 0.87 0.99 0.87 0.56 0.37 0.54 0.59 0.42 0.34 0.31 0.30 0.33 0.37 0.42 0.48 0.66 0.83 0.90 0.89 0.79 0.71 0.73 0.85 0.93 0.96 0.99 1.00 1.08 1.19 1.28 1.45 1.68 1.79 1.81 1.86 2.08 2.20 2.30 2.26 2.27 2.35 2.44 2.56 2.60 2.63 2.59 2.59
0.30 0.36 0.42 0.61 0.59 0.62 0.58 0.66 0.59 0.40 0.38 0.37 0.40 0.45 0.56 0.64 0.69 0.83 0.99 1.07 0.99 0.86 0.77 0.80 0.90 1.01 1.01 1.03 1.05 1.11 1.12 1.12 1.22 1.25 1.39 1.58 1.61 1.66 1.80 1.90 1.98 2.09 2.15 2.24 2.40 2.47 2.45 2.48 2.48
0.22 0.28 0.44 0.66 0.85 0.88 0.71 0.71 0.69 0.57 0.53 0.50 0.54 0.60 0.72 0.82 0.91 1.00 1.14 1.18 1.05 0.90 0.80 0.81 0.89 1.01 1.18 1.30 1.25 1.21 1.25 1.30 1.50 1.52 1.37 1.35 1.51 1.57 1.60 1.65 1.72 1.86 1.98 2.08 2.18 2.28 2.39 2.40 2.40
0.26 0.36 0.51 0.69 0.72 0.99 1.11 1.02 0.80 0.71 0.71 0.73 0.77 0.81 0.87 1.00 1.01 1.01 1.11 1.17 1.07 0.88 0.81 0.79 0.83 0.93 1.06 1.11 1.15 1.12 1.18 1.29 1.54 1.75 1.68 1.49 1.48 1.50 1.47 1.42 1.49 1.63 1.74 1.85 1.99 2.05 2.06 2.09 2.23
0.35 0.46 0.68 1.04 0.98 0.90 1.10 1.10 0.78 0.70 0.73 0.75 0.76 0.76 0.80 0.91 0.91 0.96 1.01 0.96 0.88 0.75 0.68 0.67 0.69 0.80 0.93 0.93 0.98 1.04 1.05 1.15 1.26 1.37 1.38 1.31 1.22 1.19 1.24 1.30 1.31 1.38 1.54 1.66 1.70 1.72 1.75 1.82 1.93